EHI
12 12 14 23 41 63 80 89 91 87 80 73 58 37 22 13 7 4 2 2 2 1 0 0 0 0 0 0 0 0 0 0 0 0 0 0 0 0 0 0 0 0 0
9 9 11 19 35 55 75 86 90 86 77 66 50 31 17 9 4 3 2 1 2 1 0 0 0 0 0 0 0 0 0 0 0 0 0 0 0 0 0 0 0 0 0
4 5 8 14 26 43 64 79 82 75 64 51 36 22 11 5 2 1 1 0 1 1 0 0 0 0 0 0 0 0 0 0 0 0 0 0 0 0 0 0 0 0 0
2 3 6 11 21 34 50 63 65 56 45 35 25 15 8 4 1 0 0 0 0 0 0 0 0 0 0 0 0 0 0 0 0 0 0 0 0 0 0 0 0 0 0
5 6 8 11 17 27 37 43 43 35 28 23 16 9 5 2 1 0 0 0 0 0 0 0 0 0 0 0 0 0 0 0 0 0 0 0 0 0 0 0 0 0 0
13 15 17 18 19 24 28 28 24 19 16 12 7 3 1 0 0 0 0 0 0 0 0 0 0 0 0 0 0 0 0 0 0 0 0 0 0 0 0 0 0 0 0
21 24 26 24 21 20 20 16 11 8 7 4 2 0 0 0 0 0 0 0 0 0 0 0 0 0 0 0 0 0 0 0 0 0 0 0 0 0 0 0 0 0 0
24 24 22 20 16 13 10 7 4 3 2 1 0 0 0 0 0 0 0 0 0 0 0 0 0 0 0 0 0 0 0 0 0 0 0 0 0 0 0 0 0 0 0
17 15 12 10 9 6 3 2 1 1 0 0 0 0 0 0 0 0 0 0 0 0 0 0 0 0 0 0 0 0 0 0 0 0 0 0 0 0 0 0 0 0 0
9 7 5 5 4 2 0 0 0 0 0 0 0 0 0 0 0 0 0 0 0 0 0 0 0 0 0 0 0 0 0 0 0 0 0 0 0 0 0 0 0 0 0
5 4 2 1 1 0 0 0 0 0 0 0 0 0 0 0 0 0 0 0 0 0 0 0 0 0 0 0 0 0 0 0 0 0 0 0 0 0 0 0 0 0 0
3 2 1 0 0 0 0 0 0 0 0 0 0 0 0 0 0 0 0 0 0 0 0 0 0 0 0 0 0 0 0 0 0 0 0 0 0 0 0 0 0 0 0
1 1 0 0 0 0 0 0 0 0 0 0 0 0 0 0 0 0 0 0 0 0 0 0 0 0 0 0 0 0 0 0 0 0 0 0 0 0 0 0 0 0 0
0 0 0 0 0 0 0 0 0 0 0 0 0 0 0 0 0 0 0 0 0 0 0 0 0 0 0 0 0 0 0 0 0 0 0 0 0 0 0 0 0 0 0
0 0 0 0 0 0 0 0 0 0 0 0 0 0 0 0 0 0 0 0 0 0 0 0 0 0 0 0 0 0 0 0 0 0 0 0 0 0 0 0 0 0 0
0 0 0 0 0 0 0 0 0 0 0 0 0 0 0 0 0 0 0 0 0 0 0 0 0 0 0 0 0 0 0 0 0 0 0 0 0 0 0 0 0 0 0
0 0 0 0 0 0 0 0 0 0 0 0 0 0 0 0 0 0 0 0 0 0 0 0 0 0 0 0 0 0 0 0 0 0 0 0 0 0 0 0 0 0 0
0 0 0 0 0 0 0 0 0 0 0 0 0 0 0 0 0 0 0 0 0 0 0 0 0 0 0 0 0 0 0 0 0 0 0 0 0 0 0 0 0 0 0
0 0 0 0 0 0 0 0 0 0 0 0 0 0 0 0 0 0 0 0 0 0 0 0 0 0 0 0 0 0 0 0 0 0 0 0 0 0 0 0 0 0 0
0 0 0 0 0 0 0 0 0 0 0 0 0 0 0 0 0 0 0 0 0 0 0 0 0 0 0 0 0 0 0 0 0 0 0 0 0 0 0 0 0 0 0
0 0 0 0 0 0 0 0 0 0 0 0 0 0 0 0 0 0 0 0 0 0 0 0 0 0 0 0 0 0 0 0 0 0 0 0 0 0 0 0 0 0 0
0 0 0 0 0 0 0 0 0 0 0 0 0 0 0 0 0 0 0 0 0 0 0 0 0 0 0 0 0 0 0 0 0 0 0 0 0 0 0 0 0 0 0
0 0 0 0 0 0 0 0 0 0 0 0 0 0 0 0 0 0 0 0 0 0 0 0 0 0 0 0 0 0 0 0 0 0 0 0 0 0 0 0 0 0 0
0 0 0 0 0 0 0 0 0 0 0 0 0 0 0 0 0 0 0 0 0 0 0 0 0 0 0 0 0 0 0 0 0 0 0 0 0 0 0 0 0 0 0
0 0 0 0 0 0 0 0 0 0 0 0 0 0 0 0 0 0 0 0 0 0 0 0 0 0 0 0 0 0 0 0 0 0 0 0 0 0 0 0 0 0 0
0 0 0 0 0 0 0 0 0 0 0 0 0 0 0 0 0 0 0 0 0 0 0 0 0 0 0 0 0 0 0 0 0 0 0 0 0 0 0 0 0 0 0
Wind_Speed
18 12 11 11 10 11 12 13 13 11 9 7 6 5 3 2 2 1 2 3 4 6 5 5 5 5 5 5 5 3 4 3 1 2 2 2 4 4 4 4 5 6 6
10 9 10 11 13 13 12 12 13 11 10 7 5 4 4 3 2 2 3 3 4 5 5 6 5 5 5 5 4 3 3 3 3 2 2 2 1 2 3 3 4 4 4
10 8 8 9 8 9 10 11 11 9 9 9 7 6 4 3 3 2 2 3 3 5 5 6 6 5 5 5 4 4 4 3 2 3 2 2 1 2 1 1 1 2 2
5 5 5 5 6 7 6 7 8 9 9 10 9 9 5 3 1 1 2 4 5 6 6 5 6 5 5 5 4 4 3 4 2 2 2 2 2 1 2 2 2 2 2
2 0 1 2 3 4 7 9 11 10 10 9 9 8 6 4 4 4 5 4 4 5 6 6 5 5 5 5 5 5 4 3 3 2 1 2 2 1 2 3 4 4 3
6 7 8 9 9 10 11 11 12 11 10 9 8 8 8 7 8 7 6 4 4 4 5 6 5 5 5 5 4 4 5 3 3 2 2 2 2 2 3 4 5 5 5
10 11 11 11 11 12 11 11 12 11 9 9 7 7 8 8 8 8 6 6 4 3 4 5 4 4 4 4 4 4 3 3 2 2 1 2 2 2 2 3 5 5 5
12 12 12 11 11 11 11 11 11 10 9 8 6 6 7 5 6 7 6 6 4 4 4 5 5 4 4 4 3 3 3 2 2 1 0 1 2 2 3 3 4 6 6
13 13 12 12 12 12 11 11 11 10 9 9 8 8 8 7 7 7 6 5 5 5 5 5 5 5 5 5 4 4 4 3 3 2 1 1 2 2 3 3 4 5 9
12 13 12 12 12 12 11 12 11 11 10 9 8 8 8 8 8 7 7 7 6 6 6 6 6 6 6 6 6 5 4 4 3 2 2 2 2 3 2 3 3 4 6
11 11 11 11 11 11 11 11 10 11 10 9 9 9 8 8 8 8 8 7 7 7 7 7 7 7 7 6 6 5 4 4 4 4 4 5 4 3 3 4 4 4 5
10 10 10 10 10 11 10 10 10 10 9 9 10 9 9 9 9 9 8 8 8 7 7 7 7 7 6 5 5 5 5 5 5 5 5 6 5 6 5 4 5 6 6
9 9 10 10 10 9 9 9 9 9 9 9 10 10 10 9 9 8 8 8 8 7 7 6 6 6 5 5 4 4 3 4 4 5 6 7 6 7 6 7 7 6 7
8 8 8 8 8 8 9 9 9 8 9 10 11 10 9 8 8 8 8 7 7 6 6 5 5 4 4 3 3 3 4 4 5 6 6 7 7 8 8 7 8 7 8
8 8 7 7 7 8 8 8 8 8 8 10 10 9 8 8 8 8 7 6 6 6 5 5 4 3 2 2 3 3 4 5 7 7 7 7 11 12 9 8 8 8 8
7 7 7 7 7 7 7 7 8 7 8 9 9 8 8 8 7 7 6 6 6 5 5 4 3 3 3 5 6 5 4 6 7 8 9 9 9 11 14 15 15 14 11
7 7 6 6 6 6 6 7 7 7 8 8 8 8 7 7 6 6 6 6 5 5 5 4 4 3 4 6 8 10 6 7 7 8 8 7 8 11 8 11 15 14 16
6 6 6 6 6 6 7 7 7 7 8 8 7 6 6 6 5 6 6 5 4 4 3 4 4 3 5 8 9 11 7 7 8 8 8 9 10 9 10 10 11 10 11
6 6 6 6 6 7 7 7 7 7 7 6 6 5 5 5 5 6 5 3 3 4 3 3 4 4 5 8 10 10 7 7 9 9 9 9 9 12 13 11 10 11 10
6 6 6 7 7 6 6 7 7 6 6 5 4 5 5 5 5 4 4 3 3 3 3 4 4 5 5 9 10 11 6 7 8 9 9 10 10 14 14 9 9 10 10
7 7 7 7 6 5 6 6 5 4 3 4 5 5 4 4 4 4 3 3 3 4 4 5 5 5 6 8 11 13 7 7 8 7 7 8 13 15 15 11 8 10 12
7 7 6 6 5 5 5 5 3 2 3 4 4 4 3 3 3 4 3 3 3 4 4 5 6 5 6 7 10 14 12 10 7 7 7 8 14 15 14 10 11 13 10
6 5 5 5 4 4 3 3 1 1 3 3 3 3 3 3 2 2 2 2 2 2 3 4 5 6 6 7 11 12 14 15 8 7 11 13 13 12 9 11 13 10 6
5 4 5 4 3 3 2 1 1 1 3 3 2 2 2 2 2 1 1 0 1 1 2 3 5 6 6 6 8 8 8 11 9 8 10 12 11 9 9 9 8 6 6
3 3 4 3 3 3 3 3 2 3 3 2 1 1 1 0 1 1 1 2 2 3 2 3 4 5 6 8 12 8 7 7 7 8 5 5 7 7 8 8 7 6 6
3 3 3 3 3 3 3 3 2 3 3 1 0 0 1 1 1 2 3 3 3 4 4 4 5 5 6 11 12 12 12 12 12 6 5 6 7 7 7 8 7 7 7
Wind_Direction
228 219 212 207 200 197 194 194 194 190 173 169 168 156 141 108 93 86 102 127 136 138 135 130 123 118 117 125 127 111 90 57 28 95 72 58 61 73 64 60 61 54 48
233 219 210 205 202 199 195 193 193 185 172 166 146 115 109 104 98 78 83 89 118 125 129 130 126 119 115 113 114 118 109 65 26 92 93 41 28 36 49 47 63 54 41
231 226 216 214 207 199 195 193 189 167 149 135 114 105 94 80 75 70 71 77 100 109 116 121 121 124 122 118 111 113 122 121 53 42 120 136 221 315 338 0 39 26 29
247 228 216 206 199 197 179 164 141 130 129 126 129 130 125 115 99 107 102 104 99 103 108 110 112 112 108 112 110 99 108 118 115 66 48 89 137 168 313 307 310 321 322
307 280 147 146 124 111 107 107 109 111 114 117 123 119 111 108 120 113 117 108 94 96 106 105 110 108 104 107 106 104 98 100 121 127 117 94 74 113 205 278 302 306 288
49 65 73 80 78 81 90 98 101 99 99 102 105 113 121 136 140 140 140 122 106 98 100 104 101 102 104 107 108 108 107 108 115 127 141 152 171 199 202 243 270 284 288
61 66 70 75 79 84 90 96 102 102 100 99 102 115 133 151 151 146 141 132 121 109 110 109 105 103 108 110 109 107 107 113 121 150 171 191 212 204 206 240 267 269 274
63 66 68 72 75 78 82 90 95 98 96 96 95 101 117 128 128 127 131 129 123 119 117 113 108 102 98 97 93 84 77 76 74 74 171 236 245 219 217 234 269 288 280
63 63 63 63 65 67 67 74 83 83 82 84 87 87 93 102 109 110 111 110 111 115 107 101 93 86 82 80 78 68 59 61 50 36 12 305 287 269 250 243 243 272 293
62 60 59 60 60 62 64 66 71 76 74 75 78 83 82 88 94 97 99 98 97 96 95 87 82 77 73 74 74 69 61 63 43 24 12 341 308 303 289 273 263 252 272
64 63 62 62 64 65 66 70 73 77 77 78 79 80 80 82 86 86 86 88 87 89 90 89 86 83 78 76 78 72 57 47 27 10 354 332 318 308 305 295 283 273 268
65 63 63 63 62 63 65 67 70 74 78 81 82 80 80 81 81 80 80 83 82 82 89 94 95 93 86 79 76 63 48 32 9 350 337 325 321 312 301 292 285 280 271
62 58 56 56 57 60 64 67 70 76 80 83 83 80 78 80 80 79 78 80 84 85 89 94 96 93 88 78 69 58 35 11 345 328 318 312 311 303 296 290 284 280 281
65 62 59 57 58 62 65 69 67 72 81 83 83 80 78 80 81 80 78 79 84 87 86 87 89 86 79 70 49 27 6 345 329 318 308 302 297 289 289 288 284 285 287
65 65 67 66 66 67 67 68 68 69 78 83 83 83 82 81 80 78 76 74 76 82 84 81 70 58 59 45 26 1 344 331 324 320 314 306 304 305 304 304 302 298 292
64 64 66 69 72 75 78 77 76 75 81 84 85 84 83 81 80 78 75 71 67 66 67 60 52 39 36 24 17 2 337 326 320 317 316 312 306 311 314 313 311 308 303
65 63 64 70 74 75 81 82 79 78 79 80 82 81 82 80 74 77 71 65 60 59 56 45 42 33 12 15 5 354 344 323 314 311 310 311 310 314 308 309 310 306 301
68 67 71 76 73 75 76 75 74 75 77 77 77 81 83 80 73 69 64 56 52 51 42 36 30 20 6 6 359 349 341 322 316 311 306 305 308 311 316 313 307 304 302
74 76 80 84 79 75 77 78 72 72 75 76 77 78 82 79 69 63 55 46 51 45 36 26 17 8 347 348 349 352 335 328 324 320 317 316 314 313 318 318 312 309 307
79 83 83 81 77 71 76 78 73 71 70 74 77 73 76 79 74 67 58 47 55 46 33 22 7 354 338 336 344 350 339 332 329 324 323 323 319 318 320 317 309 309 311
83 82 80 75 70 69 77 76 70 62 64 78 76 71 74 83 83 72 60 59 56 43 26 10 351 346 340 338 342 348 346 331 323 321 322 319 319 319 319 318 307 303 307
82 80 79 70 56 60 74 73 60 52 76 83 78 70 66 77 90 86 69 56 51 40 18 0 352 345 341 340 340 341 341 337 321 315 315 313 317 319 321 322 318 318 320
84 77 78 66 44 40 68 74 19 91 100 93 86 79 73 68 80 92 82 53 40 31 3 356 351 343 340 339 340 339 337 338 334 317 318 321 323 328 328 326 328 331 335
80 76 74 63 33 18 38 31 315 130 122 114 103 90 81 65 53 59 76 66 346 346 345 346 343 338 336 341 345 339 334 334 335 328 322 324 328 336 333 333 338 341 341
78 76 79 69 37 26 31 22 54 107 109 107 96 74 66 22 344 331 269 257 250 243 287 312 318 328 333 331 329 331 330 329 325 322 328 344 344 347 345 342 342 343 347
89 84 77 70 44 35 29 27 59 110 122 121 107 310 303 312 315 322 323 303 289 305 303 300 306 308 308 320 331 337 337 338 339 346 349 346 344 344 342 341 342 345 349